Weather History for KSPA - January, 2013

Change the Weather History Date:

Tuesday, January 1, 2013

  Actual Average (KGSP) Record (KGSP)
Temperature  
Mean Temperature 50 °F 42 °F  
Max Temperature 51 °F 52 °F 75 °F (1952)
Min Temperature 48 °F 32 °F 8 °F (1918)
Degree Days  
Heating Degree Days 16 23  
Month to date heating degree days 23  
Since 1 July heating degree days 1226  
Cooling Degree Days 0 0  
Month to date cooling degree days 0  
Year to date cooling degree days 0  
Moisture  
Dew Point 44 °F    
Average Humidity 81    
Maximum Humidity 100    
Minimum Humidity 44    
Precipitation  
Precipitation 0.32 in 0.12 in 1.03 in (1937)
Month to date precipitation 0.12  
Year to date precipitation 0.12  
Snow  
Snow 0.00 in 0.10 in 5.20 in (1962)
Month to date snowfall 0.1  
Since 1 July snowfall 0.6  
Snow Depth -    
Sea Level Pressure  
Sea Level Pressure 30.03 in    
Wind  
Wind Speed 6 mph (WSW)    
Max Wind Speed 15 mph    
Max Gust Speed 20 mph    
Visibility 6 miles    
Events Rain    
T = Trace of Precipitation, MM = Missing Value Source: NWS Daily Summary

Daily Weather History Graph

Daily Weather History Graph

Search for Another Location

Airport or City:

Trip Planner

Search our weather history database for the weather conditions in past years. The results will help you decide how hot, cold, wet, or windy it might be!

Date:

Astronomy

Jan. 01, 2013 Rise Set
Actual Time 7:35 AM EST 5:27 PM EST
Civil Twilight 7:07 AM EST 5:55 PM EST
Nautical Twilight 6:36 AM EST 6:27 PM EST
Astronomical Twilight 6:05 AM EST 6:57 PM EST
Moon 9:46 PM EST (1/1) 9:57 AM EST (1/1)
Length of Visible Light 10h 47m
Length of Day
9h 51m
Waning Gibbous, 83% of the Moon is Illuminated
Jan 1
Waning Gibbous
Jan 4
Last Quarter
Jan 11
New
Jan 18
First Quarter
Jan 26
Full

Hourly Weather History & Observations

Time (EST) Temp. Dew Point Humidity Pressure Visibility Wind Dir Wind Speed Gust Speed Precip Events Conditions
12:15 AM 51.8 °F 30.2 °F 44% 30.11 in 10.0 mi SW 6.9 mph - N/A   Overcast
12:35 AM 51.8 °F 30.2 °F 44% 30.10 in 10.0 mi SW 6.9 mph - N/A   Overcast
12:55 AM 51.8 °F 30.2 °F 44% 30.09 in 10.0 mi SW 5.8 mph - N/A   Overcast
1:15 AM 50.0 °F 30.2 °F 47% 30.08 in 10.0 mi SW 6.9 mph - N/A   Overcast
1:35 AM 51.8 °F 30.2 °F 44% 30.07 in 10.0 mi SW 8.1 mph - N/A   Overcast
1:55 AM 50.0 °F 30.2 °F 47% 30.06 in 10.0 mi SW 10.4 mph - N/A   Scattered Clouds
2:15 AM 51.8 °F 30.2 °F 44% 30.06 in 10.0 mi SW 9.2 mph - N/A   Clear
2:35 AM 51.8 °F 30.2 °F 44% 30.05 in 10.0 mi SW 8.1 mph - N/A   Clear
2:55 AM 51.8 °F 32.0 °F 47% 30.07 in 10.0 mi WSW 12.7 mph 17.3 mph N/A   Clear
3:15 AM 51.8 °F 32.0 °F 47% 30.07 in 10.0 mi WSW 15.0 mph 18.4 mph N/A   Scattered Clouds
3:35 AM 51.8 °F 32.0 °F 47% 30.05 in 10.0 mi SW 12.7 mph 17.3 mph N/A   Scattered Clouds
3:55 AM 51.8 °F 32.0 °F 47% 30.06 in 10.0 mi SW 10.4 mph 18.4 mph N/A   Clear
4:15 AM 51.8 °F 32.0 °F 47% 30.05 in 10.0 mi SW 13.8 mph 18.4 mph N/A   Mostly Cloudy
4:35 AM 50.0 °F 32.0 °F 50% 30.05 in 10.0 mi SW 12.7 mph 19.6 mph N/A   Mostly Cloudy
4:55 AM 50.0 °F 32.0 °F 50% 30.05 in 10.0 mi WSW 12.7 mph 18.4 mph N/A   Scattered Clouds
5:15 AM 50.0 °F 32.0 °F 50% 30.05 in 10.0 mi WSW 9.2 mph - N/A   Clear
5:35 AM 50.0 °F 32.0 °F 50% 30.04 in 10.0 mi WSW 9.2 mph - N/A   Clear
5:55 AM 50.0 °F 32.0 °F 50% 30.05 in 10.0 mi WSW 10.4 mph - N/A   Scattered Clouds
6:15 AM 50.0 °F 33.8 °F 54% 30.04 in 10.0 mi WSW 9.2 mph - N/A   Overcast
6:35 AM 50.0 °F 33.8 °F 54% 30.04 in 10.0 mi WSW 10.4 mph - N/A   Overcast
6:55 AM 50.0 °F 33.8 °F 54% 30.05 in 10.0 mi SW 10.4 mph - N/A   Overcast
7:15 AM 50.0 °F 35.6 °F 58% 30.06 in 10.0 mi WSW 9.2 mph - N/A   Overcast
7:35 AM 51.8 °F 37.4 °F 58% 30.07 in 10.0 mi West 9.2 mph - N/A   Overcast
7:55 AM 51.8 °F 39.2 °F 62% 30.08 in 10.0 mi West 9.2 mph - N/A   Overcast
8:15 AM 51.8 °F 41.0 °F 67% 30.08 in 10.0 mi WSW 6.9 mph - N/A   Overcast
8:35 AM 51.8 °F 41.0 °F 67% 30.09 in 10.0 mi West 6.9 mph - N/A   Overcast
8:55 AM 50.0 °F 42.8 °F 76% 30.08 in 7.0 mi West 4.6 mph - N/A   Light Drizzle
9:15 AM 50.0 °F 42.8 °F 76% 30.08 in 10.0 mi SW 3.5 mph - N/A   Overcast
9:35 AM 50.0 °F 42.8 °F 76% 30.08 in 10.0 mi Calm Calm - N/A   Drizzle
9:55 AM 48.2 °F 44.6 °F 87% 30.08 in 7.0 mi Calm Calm - 0.01 in Rain Rain
10:15 AM 48.2 °F 46.4 °F 93% 30.08 in 4.0 mi Calm Calm - 0.01 in Rain Light Rain
10:35 AM 48.2 °F 46.4 °F 93% 30.10 in 4.0 mi Calm Calm - 0.02 in Rain Rain
10:55 AM 50.0 °F 50.0 °F 100% 30.09 in 4.0 mi Calm Calm - 0.03 in   Drizzle
11:15 AM 50.0 °F 50.0 °F 100% 30.09 in 4.0 mi Calm Calm - N/A Rain Rain
11:35 AM 50.0 °F 50.0 °F 100% 30.07 in 5.0 mi South 3.5 mph - N/A   Overcast
11:55 AM 50.0 °F 50.0 °F 100% 30.06 in 5.0 mi Calm Calm - N/A   Overcast
12:15 PM 50.0 °F 50.0 °F 100% 30.05 in 5.0 mi Calm Calm - N/A   Overcast
12:35 PM 50.0 °F 50.0 °F 100% 30.04 in 4.0 mi WSW 3.5 mph - N/A Rain Light Rain
12:55 PM 50.0 °F 50.0 °F 100% 30.03 in 3.0 mi Calm Calm - N/A   Drizzle
1:15 PM 50.0 °F 50.0 °F 100% 30.02 in 2.0 mi Calm Calm - N/A Rain Rain
1:35 PM 50.0 °F 50.0 °F 100% 30.02 in 2.0 mi SW 3.5 mph - 0.01 in Rain Rain
1:55 PM 50.0 °F 50.0 °F 100% 30.01 in 2.5 mi Calm Calm - 0.03 in Rain Light Rain
2:15 PM 50.0 °F 50.0 °F 100% 30.01 in 2.0 mi Calm Calm - 0.01 in Rain Light Rain
2:35 PM 51.8 °F 51.8 °F 100% 30.00 in 3.0 mi Calm Calm - 0.01 in Rain Rain
2:55 PM 51.8 °F 51.8 °F 100% 29.99 in 3.0 mi Calm Calm - 0.02 in   Drizzle
3:15 PM 51.8 °F 51.8 °F 100% 29.98 in 3.0 mi Calm Calm - N/A Rain Light Rain
3:35 PM 51.8 °F 51.8 °F 100% 29.98 in 2.0 mi Calm Calm - 0.01 in Rain Rain
3:55 PM 51.8 °F 51.8 °F 100% 29.99 in 2.5 mi SW 3.5 mph - 0.01 in Rain Light Rain
4:15 PM 51.8 °F 51.8 °F 100% 30.00 in 2.0 mi SW 3.5 mph - 0.02 in Rain Rain
4:35 PM 51.8 °F 51.8 °F 100% 29.99 in 2.5 mi SW 3.5 mph - 0.03 in Rain Light Rain
4:55 PM 51.8 °F 51.8 °F 100% 29.98 in 3.0 mi SSW 4.6 mph - 0.04 in Rain Light Rain
5:15 PM 51.8 °F 51.8 °F 100% 30.00 in 5.0 mi WSW 4.6 mph - 0.01 in Rain Light Rain
5:35 PM 51.8 °F 51.8 °F 100% 30.00 in 4.0 mi Calm Calm - 0.02 in Rain Rain
5:55 PM 51.8 °F 51.8 °F 100% 29.98 in 5.0 mi Calm Calm - 0.02 in   Drizzle
6:15 PM 51.8 °F 51.8 °F 100% 29.98 in 5.0 mi Calm Calm - N/A Rain Light Rain
6:35 PM 51.8 °F 51.8 °F 100% 29.98 in 5.0 mi Calm Calm - N/A   Drizzle
6:55 PM 51.8 °F 51.8 °F 100% 29.97 in 4.0 mi Calm Calm - 0.01 in Rain Light Rain
7:15 PM 51.8 °F 51.8 °F 100% 29.98 in 7.0 mi WSW 3.5 mph - N/A Rain Light Rain
7:35 PM 51.8 °F 51.8 °F 100% 30.00 in 5.0 mi West 5.8 mph - N/A   Light Drizzle
8:15 PM 51.8 °F 51.8 °F 100% 29.98 in 3.0 mi Calm Calm - 0.01 in Rain Light Rain
8:35 PM 51.8 °F 51.8 °F 100% 29.96 in 3.0 mi Calm Calm - 0.02 in Rain Light Rain
8:55 PM 51.8 °F 51.8 °F 100% 29.97 in 2.5 mi Calm Calm - 0.03 in Rain Light Rain
9:15 PM 51.8 °F 51.8 °F 100% 29.97 in 1.0 mi Calm Calm - N/A Rain Light Rain
9:35 PM 50.0 °F 50.0 °F 100% 29.96 in 0.8 mi Calm Calm - 0.01 in Rain Rain
9:55 PM 50.0 °F 50.0 °F 100% 29.97 in 1.2 mi Calm Calm - 0.03 in Rain Rain
10:15 PM 50.0 °F 50.0 °F 100% 29.95 in 0.8 mi Calm Calm - 0.02 in Rain Light Rain
10:35 PM 51.8 °F 51.8 °F 100% 29.95 in 1.8 mi Calm Calm - 0.03 in   Drizzle
10:55 PM 50.0 °F 50.0 °F 100% 29.96 in 1.5 mi Calm Calm - 0.04 in Rain Rain
11:15 PM 50.0 °F 50.0 °F 100% 29.95 in 1.0 mi Calm Calm - 0.01 in Rain Light Rain
11:35 PM 50.0 °F 50.0 °F 100% 29.96 in 1.5 mi NNW 3.5 mph - 0.02 in Rain Rain
11:55 PM 51.8 °F 51.8 °F 100% 29.94 in 2.5 mi Calm Calm - 0.05 in Rain Light Rain